Regional Weather Roundup
Issued by NWS

Home | Current Version | Previous Version | Text Only | Print | Product List | Glossary On
Versions: 1 2 3 4 5 6 7 8 9 10 11 12 13 14 15 16 17 18 19 20 21 22 23 24 25 26 27 28 29 30 31 32 33 34 35 36 37 38 39 40 41 42 43 44 45 46 47
000
ASUS45 KBOU 280007
RWRCO

WEATHER ROUNDUP FOR COLORADO
NATIONAL WEATHER SERVICE DENVER/BOULDER CO
500 PM MST FRI FEB 27 2015

NOTE: "FAIR" INDICATES FEW OR NO CLOUDS BELOW 12000 FEET WITH NO
SIGNIFICANT WEATHER AND/OR OBSTRUCTIONS TO VISIBILITY.

COZ001>005-013-030-031-280100-
...NORTHWEST COLORADO...

CITY           SKY/WX    TMP DP  RH WIND       PRES   REMARKS
CRAIG          SUNNY     33   7  33 CALM      29.74F
HAYDEN         CLEAR     30   3  31 CALM      29.73F
MEEKER         MOSUNNY   30  14  51 SW5       29.73S WCI  25
MOUNT WERNER   NOT AVBL
STEAMBOAT SPGS CLEAR     28   6  39 CALM      29.73S
WALDEN         CLEAR     23   3  42 CALM      29.71S
$$

COZ006>008-011-280100-
...WEST CENTRAL VALLEYS...

CITY           SKY/WX    TMP DP  RH WIND       PRES   REMARKS
GRAND JUNCTION MOSUNNY   39  24  55 NW8       29.73S
MONTROSE       MOSUNNY   33  25  72 CALM      29.77S
EAGLE          FLURRIES  30  27  86 E8        29.74R WCI  23
RIFLE          PTSUNNY   38  23  55 S12       29.72S
DELTA          PTSUNNY   38  31  76 S5        29.75S
NUCLA          MOSUNNY   36  21  55 SW8       29.77S
$$

COZ017>023-064>068-280100-
...SOUTHWEST COLORADO...

CITY           SKY/WX    TMP DP  RH WIND       PRES   REMARKS
DURANGO        LGT SNOW  29  24  82 SE6       29.76F WCI  23
CORTEZ         LGT SNOW  32  30  92 SW3       29.77S FOG
PAGOSA SPRINGS LGT SNOW  28  27  95 CALM      29.76R
TELLURIDE      CLOUDY    26  14  60 CALM      29.72S
WOLF CREEK PAS SNOW      10   9  92 SW16G25   29.71S VSB 1/4 WCI  -7
$$

COZ009-010-012-014-032>034-037-058>063-280100-
...CENTRAL COLORADO...

CITY           SKY/WX    TMP DP  RH WIND       PRES   REMARKS
ASPEN          FLURRIES  24  18  77 N3        29.71S
BUENA VISTA    CLOUDY    19  11  69 CALM      29.72S
COPPER MTN     LGT SNOW  14   9  79 W15       29.64R WCI  -1
BERTHOUD PASS  SNOW       5  -2  72 N9        29.64R VSB<1/4 WCI  -9
COTTONWOOD PAS CLOUDY    19  14  79 CALM      29.67S
GUNNISON       PTSUNNY   30  10  43 W7        29.72R WCI  23
KREMMLING      MOCLDY    27  14  59 CALM      29.73S
LEADVILLE      LGT SNOW  14  11  87 S6        29.65R FOG     WCI   5
SALIDA         MOCLDY    26  16  66 E7G16     29.80R WCI  18
SUNLIGHT       CLOUDY    18  14  86 CALM        N/A
WILKERSON PASS CLOUDY    16  10  79 SW5       29.69R HAZE    WCI   9
$$

COZ069>075-280100-
...SAN LUIS VALLEY/SANGRE DE CRISTO MOUNTAINS...

CITY           SKY/WX    TMP DP  RH WIND       PRES   REMARKS
ALAMOSA        PTCLDY    23  16  74 SW13      29.74R WCI  11
LA VETA PASS   LGT SNOW  18  14  86 MISG      29.70F VSB 1
SAGUACHE       LGT SNOW  25  19  80 E6        29.75S WCI  18
$$

COZ035-036-038>040-280100-
...NORTHERN COLORADO FRONT RANGE...

CITY           SKY/WX    TMP DP  RH WIND       PRES   REMARKS
DENVER INTL AP PTCLDY    15   7  70 NW14      29.89R WCI   0
DMNS CITY PARK   N/A     15   7  69 N5G10     29.90S WCI   8
AURORA         MOCLDY    12   6  77 N9        29.88R WCI  -1
FRONT RANGE AP NOT AVBL
ERIE MUNI ARPT CLEAR     15   6  67 N3        29.92S
BOULDER MUN AP CLOUDY    14   9  79 NW3       29.91S
CENTENNIAL     MOCLDY    16   8  71 N9        29.86R WCI   4
BROOMFIELD     MOCLDY    14   9  79 NW9       29.89S WCI   2
FORT COLLINS   CLEAR     16   5  62 CALM      29.95S
LONGMONT       PTCLDY    17   5  59 CALM      29.95S
$$

COZ041-046-047-076>085-087-088-280100-
...PIKES PEAK/PALMER DIVIDE AND SOUTHERN FOOTHILLS...

CITY           SKY/WX    TMP DP  RH WIND       PRES   REMARKS
COLO. SPRINGS  LGT SNOW  11   5  77 S9        29.89S FOG     WCI  -2
A. F. ACADEMY  CLOUDY     9   1  72 SE5       29.85R WCI   0
ELLICOTT       NOT AVBL
FALCON         LGT SNOW   8   4  84 SE9       29.85R WCI  -6
FORT CARSON    LGT SNOW  11   7  83 SE2       29.89S VSB 1
LIMON          LGT SNOW   9   5  84 SE20      29.95S FOG     WCI -10
MONUMENT HILL  CLEAR      9   1  72 S10       29.79S WCI  -6
TRINIDAD       CLEAR     20   9  62 CALM      29.87R
$$

COZ042>045-048>051-090-091-280100-
...NORTHEAST COLORADO...

CITY           SKY/WX    TMP DP  RH WIND       PRES   REMARKS
GREELEY ARPT   CLOUDY    19   7  58 SE9       29.94S WCI   9
AKRON          LGT SNOW  13   8  81 S20G26    30.01R WCI  -5
BURLINGTON     LGT SNOW  12   6  77 S21       30.09S WCI  -7
WRAY           CLOUDY    18  10  73 S15G21    30.13R WCI   3
STERLING       CLOUDY    19  10  68 S18       30.04S WCI   4
HOLYOKE        NOT AVBL
FORT MORGAN    MOCLDY    18   7  62 S18       30.00R WCI   2
$$

COZ086-089-092>099-280100-
...SOUTHEAST COLORADO...

CITY           SKY/WX    TMP DP  RH WIND       PRES   REMARKS
PUEBLO         PTCLDY    18  10  71 N6        29.96S WCI  10
LA JUNTA       CLEAR     19  10  68 SE14      30.00S WCI   6
LAMAR          CLOUDY    14   8  77 SE16G25   30.09S WCI  -2
SPRINGFIELD      N/A     11   7  84 S22       30.06R WCI  -8
$$


USA.gov is the U.S. government's official web portal to all federal, state and local government web resources and services.